Shrewsbury Township, New Jersey
Current Conditions -  °F | °C
As of 2:55 PM on Saturday 25 Oct 2014 (Local Time) from KBLM Reporting Station
Clear Clear  
Wind Chill: 66°   Ceiling: Unl
Heat Index: 66°   Visibility: 10mi
Dew Point: 43°   Wind: 10mph
Humidity: 43%   Direction: 290°WNW
Pressure: 29.73"   Gusts: 18mph
Location:  40.2996°N, 74.074°W
Report Text: KBLM 251855Z AUTO 29009G16KT 10SM CLR 19/06 A2973 RMK AO1
Loading
Personal Weather Stations






























Interactive Weather Map
Tropical Storm Tracking
New forecast layout! Learn more

10-Day Weather Forecast

Advertisements
Track Severe Weather on mobile